TimeCDT,TemperatureF,Dew PointF,Humidity,Sea Level PressureIn,VisibilityMPH,Wind Direction,Wind SpeedMPH,Gust SpeedMPH,PrecipitationIn,Events,Conditions,WindDirDegrees,DateUTC
12:19 AM,48.2,48.2,100,30.09,0.8,Calm,Calm,-,N/A,,Clear,0,2013-10-11 05:19:00
12:32 AM,48.2,48.2,100,30.10,1.0,Calm,Calm,-,N/A,,Clear,0,2013-10-11 05:32:00
12:56 AM,47.8,47.8,100,30.10,1.2,Calm,Calm,-,N/A,,Clear,0,2013-10-11 05:56:00
1:36 AM,46.4,46.4,100,30.09,1.0,Calm,Calm,-,N/A,,Clear,0,2013-10-11 06:36:00
1:56 AM,46.9,46.9,100,30.09,1.5,Calm,Calm,-,N/A,,Clear,0,2013-10-11 06:56:00
2:05 AM,46.4,46.4,100,30.08,1.0,Calm,Calm,-,N/A,,Clear,0,2013-10-11 07:05:00
2:21 AM,46.4,46.4,100,30.08,1.5,Calm,Calm,-,N/A,,Clear,0,2013-10-11 07:21:00
2:32 AM,46.4,46.4,100,30.08,1.0,Calm,Calm,-,N/A,,Clear,0,2013-10-11 07:32:00
2:34 AM,46.4,46.4,100,30.08,0.5,Calm,Calm,-,N/A,Fog,Fog,0,2013-10-11 07:34:00
2:42 AM,46.4,46.4,100,30.08,0.2,Calm,Calm,-,N/A,Fog,Fog,0,2013-10-11 07:42:00
2:56 AM,45.9,45.9,100,30.09,0.8,Calm,Calm,-,N/A,,Clear,0,2013-10-11 07:56:00
3:20 AM,48.2,48.2,100,30.08,1.0,Calm,Calm,-,N/A,,Clear,0,2013-10-11 08:20:00
3:56 AM,45.9,45.9,100,30.10,1.2,Calm,Calm,-,N/A,,Clear,0,2013-10-11 08:56:00
4:05 AM,46.4,46.4,100,30.09,0.8,Calm,Calm,-,N/A,,Clear,0,2013-10-11 09:05:00
4:15 AM,46.4,46.4,100,30.10,0.5,Calm,Calm,-,N/A,Fog,Fog,0,2013-10-11 09:15:00
4:22 AM,44.6,44.6,100,30.09,1.0,Calm,Calm,-,N/A,,Clear,0,2013-10-11 09:22:00
4:39 AM,46.4,46.4,100,30.09,0.5,Calm,Calm,-,N/A,Fog,Fog,0,2013-10-11 09:39:00
4:56 AM,45.0,45.0,100,30.11,1.2,Calm,Calm,-,N/A,,Clear,0,2013-10-11 09:56:00
5:01 AM,44.6,44.6,100,30.10,0.8,Calm,Calm,-,N/A,,Clear,0,2013-10-11 10:01:00
5:15 AM,44.6,44.6,100,30.10,0.2,Calm,Calm,-,N/A,Fog,Fog,0,2013-10-11 10:15:00
5:56 AM,45.0,45.0,100,30.12,0.5,Calm,Calm,-,N/A,Fog,Fog,0,2013-10-11 10:56:00
6:01 AM,44.6,44.6,100,30.11,1.0,Calm,Calm,-,N/A,,Clear,0,2013-10-11 11:01:00
6:19 AM,44.6,44.6,100,30.12,0.5,Calm,Calm,-,N/A,Fog,Fog,0,2013-10-11 11:19:00
6:29 AM,44.6,44.6,100,30.11,1.0,Calm,Calm,-,N/A,,Clear,0,2013-10-11 11:29:00
6:33 AM,44.6,44.6,100,30.11,1.5,Calm,Calm,-,N/A,,Clear,0,2013-10-11 11:33:00
6:39 AM,42.8,42.8,100,30.12,1.0,Calm,Calm,-,N/A,,Clear,0,2013-10-11 11:39:00
6:47 AM,44.6,44.6,100,30.12,0.5,Calm,Calm,-,N/A,Fog,Fog,0,2013-10-11 11:47:00
6:56 AM,43.9,43.9,100,30.14,0.2,Calm,Calm,-,N/A,Fog,Fog,0,2013-10-11 11:56:00
7:22 AM,46.4,46.4,100,30.12,0.5,Calm,Calm,-,N/A,Fog,Fog,0,2013-10-11 12:22:00
7:40 AM,48.2,48.2,100,30.12,0.8,Calm,Calm,-,N/A,,Clear,0,2013-10-11 12:40:00
7:56 AM,50.9,50.0,97,30.15,0.8,Calm,Calm,-,N/A,,Clear,0,2013-10-11 12:56:00
8:07 AM,51.8,50.0,94,30.13,1.0,Calm,Calm,-,N/A,,Clear,0,2013-10-11 13:07:00
8:36 AM,55.4,53.6,94,30.14,1.5,Calm,Calm,-,N/A,,Clear,0,2013-10-11 13:36:00
8:49 AM,57.2,53.6,88,30.14,1.2,Calm,Calm,-,N/A,,Clear,0,2013-10-11 13:49:00
8:56 AM,57.9,52.9,83,30.16,1.2,Calm,Calm,-,N/A,,Haze,0,2013-10-11 13:56:00
9:29 AM,60.8,53.6,77,30.14,1.5,Calm,Calm,-,N/A,,Haze,0,2013-10-11 14:29:00
9:56 AM,63.9,54.9,72,30.15,1.5,Calm,Calm,-,N/A,,Haze,0,2013-10-11 14:56:00
10:14 AM,66.2,53.6,64,30.14,1.2,Variable,3.5,-,N/A,,Haze,0,2013-10-11 15:14:00
10:21 AM,66.2,53.6,64,30.14,1.8,Calm,Calm,-,N/A,,Haze,0,2013-10-11 15:21:00
10:56 AM,68.9,52.9,57,30.14,1.5,Calm,Calm,-,N/A,,Haze,0,2013-10-11 15:56:00
11:44 AM,71.6,53.6,53,30.12,2.0,Calm,Calm,-,N/A,,Haze,0,2013-10-11 16:44:00
11:56 AM,72.9,52.0,48,30.13,1.2,Calm,Calm,-,N/A,,Haze,0,2013-10-11 16:56:00
12:12 PM,73.4,51.8,47,30.11,1.8,Variable,3.5,-,N/A,,Haze,0,2013-10-11 17:12:00
12:28 PM,73.4,55.4,53,30.11,2.0,ENE,4.6,-,N/A,,Haze,60,2013-10-11 17:28:00
12:47 PM,73.4,53.6,50,30.10,1.2,Variable,3.5,-,N/A,,Haze,0,2013-10-11 17:47:00
12:56 PM,75.9,52.9,45,30.10,0.8,Variable,6.9,-,N/A,,Haze,0,2013-10-11 17:56:00
1:03 PM,75.2,53.6,47,30.09,1.2,Variable,3.5,-,N/A,,Haze,0,2013-10-11 18:03:00
1:10 PM,75.2,55.4,50,30.08,1.8,NNE,5.8,-,N/A,,Haze,30,2013-10-11 18:10:00
1:21 PM,75.2,53.6,47,30.08,1.0,North,8.1,-,N/A,,Haze,350,2013-10-11 18:21:00
1:56 PM,75.9,52.9,45,30.08,0.8,North,6.9,-,N/A,,Haze,10,2013-10-11 18:56:00
2:03 PM,77.0,53.6,44,30.07,0.5,North,5.8,-,N/A,,Haze,360,2013-10-11 19:03:00
2:23 PM,77.0,53.6,44,30.07,0.2,Variable,4.6,-,N/A,,Haze,0,2013-10-11 19:23:00
2:39 PM,77.0,53.6,44,30.06,0.5,North,3.5,-,N/A,,Haze,360,2013-10-11 19:39:00
2:56 PM,77.0,54.0,45,30.07,0.5,NNW,6.9,-,N/A,,Haze,340,2013-10-11 19:56:00
3:56 PM,77.0,55.9,48,30.06,0.5,Variable,3.5,-,N/A,,Haze,0,2013-10-11 20:56:00
4:13 PM,78.8,55.4,44,30.06,0.2,North,6.9,-,N/A,,Haze,360,2013-10-11 21:13:00
4:38 PM,77.0,55.4,47,30.06,0.5,Calm,Calm,-,N/A,,Haze,0,2013-10-11 21:38:00
4:49 PM,75.2,55.4,50,30.06,0.2,WNW,5.8,-,N/A,,Haze,290,2013-10-11 21:49:00
4:56 PM,75.9,54.9,48,30.06,0.5,West,3.5,-,N/A,,Haze,280,2013-10-11 21:56:00
5:15 PM,75.2,55.4,50,30.05,0.2,NW,3.5,-,N/A,,Haze,310,2013-10-11 22:15:00
5:35 PM,73.4,55.4,53,30.06,0.5,West,3.5,-,N/A,,Haze,270,2013-10-11 22:35:00
5:56 PM,70.0,57.9,65,30.07,0.2,West,3.5,-,N/A,,Haze,260,2013-10-11 22:56:00
6:17 PM,64.4,57.2,77,30.06,0.8,Calm,Calm,-,N/A,,Haze,0,2013-10-11 23:17:00
6:28 PM,62.6,57.2,82,30.06,1.2,Calm,Calm,-,N/A,,Haze,0,2013-10-11 23:28:00
6:36 PM,62.6,55.4,77,30.06,1.5,Calm,Calm,-,N/A,,Haze,0,2013-10-11 23:36:00
6:56 PM,59.0,54.9,86,30.08,1.2,Calm,Calm,-,N/A,,Clear,0,2013-10-11 23:56:00
7:35 PM,57.2,55.4,94,30.07,1.5,Calm,Calm,-,N/A,,Clear,0,2013-10-12 00:35:00
7:43 PM,55.4,53.6,94,30.07,1.2,Calm,Calm,-,N/A,,Clear,0,2013-10-12 00:43:00
7:56 PM,54.9,54.0,97,30.09,1.2,Calm,Calm,-,N/A,,Clear,0,2013-10-12 00:56:00
8:35 PM,55.4,53.6,94,30.08,1.0,Calm,Calm,-,N/A,,Clear,0,2013-10-12 01:35:00
8:56 PM,52.9,52.0,97,30.09,1.2,Calm,Calm,-,N/A,,Clear,0,2013-10-12 01:56:00
9:30 PM,51.8,51.8,100,30.07,1.0,Calm,Calm,-,N/A,,Clear,0,2013-10-12 02:30:00
9:56 PM,52.0,50.9,96,30.08,1.0,Calm,Calm,-,N/A,,Clear,0,2013-10-12 02:56:00
10:10 PM,53.6,53.6,100,30.07,0.8,Calm,Calm,-,N/A,,Clear,0,2013-10-12 03:10:00
10:36 PM,51.8,51.8,100,30.07,1.0,Calm,Calm,-,N/A,,Clear,0,2013-10-12 03:36:00
10:56 PM,52.9,52.9,100,30.08,0.8,Calm,Calm,-,N/A,,Clear,0,2013-10-12 03:56:00
11:14 PM,51.8,51.8,100,30.07,0.5,Calm,Calm,-,N/A,Fog,Fog,0,2013-10-12 04:14:00
11:19 PM,51.8,51.8,100,30.07,1.0,Calm,Calm,-,N/A,,Clear,0,2013-10-12 04:19:00
11:30 PM,51.8,51.8,100,30.07,0.8,Calm,Calm,-,N/A,,Clear,0,2013-10-12 04:30:00
11:56 PM,50.9,50.9,100,30.08,0.8,Calm,Calm,-,N/A,,Clear,0,2013-10-12 04:56:00